| time (UTC) | temp F | wind direction | speed knots | gust knots | rain 1hr in | rain 24hr in | rain mn in | humidity % | barometer mb |
| 20260509000514 | 66 | 220 | 1.7 | 1.7 | 0.00 | 0.00 | 0.00 | 39 | 1043.8 |
| 20260509000009 | 66 | 190 | 1.7 | 1.7 | 0.00 | 0.00 | 0.00 | 39 | 1043.9 |
| 20260508235507 | 66 | 228 | 1.7 | 6.1 | 0.00 | 0.00 | 0.00 | 39 | 1044.0 |
| 20260508235003 | 66 | 199 | 3.5 | 7.0 | 0.00 | 0.00 | 0.00 | 37 | 1044.1 |
| 20260508234500 | 67 | 223 | 2.6 | 2.6 | 0.00 | 0.00 | 0.00 | 38 | 1043.9 |
| 20260508233958 | 67 | 223 | 3.5 | 3.5 | 0.00 | 0.00 | 0.00 | 36 | 1044.0 |
| 20260508233457 | 67 | 238 | 3.5 | 5.2 | 0.00 | 0.00 | 0.00 | 36 | 1044.1 |
| 20260508232954 | 67 | 217 | 2.6 | 3.5 | 0.00 | 0.00 | 0.00 | 37 | 1044.0 |
| 20260508232451 | 67 | 212 | 4.3 | 5.2 | 0.00 | 0.00 | 0.00 | 35 | 1044.2 |
| 20260508231948 | 67 | 224 | 2.6 | 5.2 | 0.00 | 0.00 | 0.00 | 36 | 1044.1 |
| 20260508231445 | 68 | 243 | 1.7 | 3.5 | 0.00 | 0.00 | 0.00 | 37 | 1044.3 |
| 20260508230942 | 68 | 211 | 3.5 | 3.5 | 0.00 | 0.00 | 0.00 | 36 | 1044.1 |
| 20260508230438 | 68 | 213 | 5.2 | 7.0 | 0.00 | 0.00 | 0.00 | 33 | 1044.2 |
| 20260508225935 | 68 | 244 | 4.3 | 7.8 | 0.00 | 0.00 | 0.00 | 35 | 1044.1 |
| 20260508225432 | 68 | 219 | 3.5 | 5.2 | 0.00 | 0.00 | 0.00 | 35 | 1044.1 |
| 20260508224930 | 69 | 205 | 3.5 | 7.8 | 0.00 | 0.00 | 0.00 | 36 | 1044.1 |
| 20260508224427 | 69 | 245 | 3.5 | 6.1 | 0.00 | 0.00 | 0.00 | 35 | 1044.1 |
| 20260508223924 | 69 | 183 | 6.1 | 7.8 | 0.00 | 0.00 | 0.00 | 34 | 1044.5 |
| 20260508223422 | 69 | 193 | 3.5 | 5.2 | 0.00 | 0.00 | 0.00 | 38 | 1044.1 |
| 20260508222919 | 69 | 233 | 2.6 | 5.2 | 0.00 | 0.00 | 0.00 | 38 | 1044.1 |
| 20260508222416 | 69 | 222 | 6.1 | 7.8 | 0.00 | 0.00 | 0.00 | 34 | 1044.1 |
| 20260508221913 | 69 | 207 | 4.3 | 6.1 | 0.00 | 0.00 | 0.00 | 34 | 1044.0 |
| 20260508221408 | 70 | 212 | 3.5 | 3.5 | 0.00 | 0.00 | 0.00 | 36 | 1044.0 |
| 20260508220905 | 70 | 148 | 3.5 | 5.2 | 0.00 | 0.00 | 0.00 | 35 | 1044.1 |
| 20260508220402 | 70 | 195 | 4.3 | 6.1 | 0.00 | 0.00 | 0.00 | 34 | 1044.1 |
| 20260508215858 | 70 | 195 | 4.3 | 7.8 | 0.00 | 0.00 | 0.00 | 34 | 1044.1 |
| 20260508215355 | 70 | 208 | 4.3 | 5.2 | 0.00 | 0.00 | 0.00 | 34 | 1043.9 |
| 20260508214852 | 70 | 221 | 6.1 | 7.0 | 0.00 | 0.00 | 0.00 | 32 | 1044.2 |
| 20260508214349 | 70 | 209 | 5.2 | 7.0 | 0.00 | 0.00 | 0.00 | 35 | 1044.0 |
| 20260508213845 | 70 | 223 | 7.0 | 7.8 | 0.00 | 0.00 | 0.00 | 33 | 1044.0 |
| 20260508213343 | 70 | 235 | 6.1 | 7.8 | 0.00 | 0.00 | 0.00 | 34 | 1043.6 |
| 20260508212838 | 70 | 207 | 4.3 | 7.8 | 0.00 | 0.00 | 0.00 | 36 | 1043.9 |
| 20260508212335 | 70 | 175 | 6.1 | 8.7 | 0.00 | 0.00 | 0.00 | 33 | 1044.0 |
| 20260508211831 | 71 | 180 | 7.0 | 9.6 | 0.00 | 0.00 | 0.00 | 33 | 1044.3 |
| 20260508211327 | 71 | 202 | 3.5 | 6.1 | 0.00 | 0.00 | 0.00 | 35 | 1044.1 |
| 20260508210825 | 71 | 210 | 5.2 | 8.7 | 0.00 | 0.00 | 0.00 | 37 | 1044.2 |
| 20260508210321 | 71 | 222 | 5.2 | 7.0 | 0.00 | 0.00 | 0.00 | 34 | 1044.3 |
| 20260508205818 | 71 | 216 | 4.3 | 5.2 | 0.00 | 0.00 | 0.00 | 38 | 1044.4 |
| 20260508205314 | 71 | 217 | 3.5 | 5.2 | 0.00 | 0.00 | 0.00 | 36 | 1044.6 |
| 20260508204810 | 71 | 211 | 5.2 | 7.0 | 0.00 | 0.00 | 0.00 | 38 | 1044.8 |
| 20260508204308 | 71 | 224 | 4.3 | 6.1 | 0.00 | 0.00 | 0.00 | 34 | 1044.6 |
| 20260508203804 | 71 | 214 | 6.1 | 8.7 | 0.00 | 0.00 | 0.00 | 33 | 1044.8 |
| 20260508203300 | 71 | 217 | 4.3 | 7.0 | 0.00 | 0.00 | 0.00 | 37 | 1044.7 |
| 20260508202755 | 71 | 221 | 4.3 | 6.1 | 0.00 | 0.00 | 0.00 | 37 | 1045.1 |
| 20260508202253 | 70 | 230 | 3.5 | 5.2 | 0.00 | 0.00 | 0.00 | 38 | 1045.4 |
| 20260508201750 | 70 | 209 | 5.2 | 11.3 | 0.00 | 0.00 | 0.00 | 35 | 1045.3 |
| 20260508201247 | 70 | 231 | 3.5 | 6.1 | 0.00 | 0.00 | 0.00 | 35 | 1045.5 |
| 20260508200743 | 70 | 190 | 10.4 | 13.0 | 0.00 | 0.00 | 0.00 | 35 | 1045.4 |
| 20260508200240 | 71 | 185 | 6.1 | 11.3 | 0.00 | 0.00 | 0.00 | 34 | 1045.4 |
| 20260508195736 | 70 | 204 | 5.2 | 9.6 | 0.00 | 0.00 | 0.00 | 35 | 1045.4 |
| 20260508195232 | 71 | 184 | 4.3 | 8.7 | 0.00 | 0.00 | 0.00 | 34 | 1045.4 |
| 20260508194729 | 71 | 211 | 6.1 | 9.6 | 0.00 | 0.00 | 0.00 | 37 | 1045.3 |
| 20260508194226 | 70 | 224 | 3.5 | 6.1 | 0.00 | 0.00 | 0.00 | 35 | 1045.1 |
| 20260508193723 | 70 | 239 | 6.1 | 9.6 | 0.00 | 0.00 | 0.00 | 37 | 1045.6 |
| 20260508193220 | 70 | 212 | 4.3 | 11.3 | 0.00 | 0.00 | 0.00 | 36 | 1045.5 |
| 20260508192716 | 70 | 203 | 4.3 | 7.8 | 0.00 | 0.00 | 0.00 | 36 | 1045.6 |
| 20260508192213 | 70 | 235 | 6.1 | 9.6 | 0.00 | 0.00 | 0.00 | 36 | 1045.4 |
| 20260508191711 | 70 | 107 | 1.7 | 8.7 | 0.00 | 0.00 | 0.00 | 38 | 1045.6 |
| 20260508191207 | 70 | 173 | 5.2 | 7.8 | 0.00 | 0.00 | 0.00 | 34 | 1045.8 |
| 20260508190705 | 70 | 229 | 6.1 | 7.8 | 0.00 | 0.00 | 0.00 | 37 | 1045.8 |
| 20260508190201 | 69 | 198 | 3.5 | 7.8 | 0.00 | 0.00 | 0.00 | 36 | 1045.7 |
| 20260508185658 | 69 | 213 | 5.2 | 7.8 | 0.00 | 0.00 | 0.00 | 35 | 1045.8 |
| 20260508185155 | 69 | 198 | 5.2 | 8.7 | 0.00 | 0.00 | 0.00 | 40 | 1045.9 |
| 20260508184652 | 70 | 198 | 4.3 | 6.1 | 0.00 | 0.00 | 0.00 | 36 | 1046.0 |
| 20260508184149 | 69 | 246 | 0.9 | 5.2 | 0.00 | 0.00 | 0.00 | 41 | 1046.2 |
| 20260508183646 | 70 | 200 | 5.2 | 8.7 | 0.00 | 0.00 | 0.00 | 34 | 1046.1 |
| 20260508183142 | 69 | 221 | 3.5 | 7.0 | 0.00 | 0.00 | 0.00 | 38 | 1046.1 |
| 20260508182638 | 69 | 221 | 5.2 | 7.0 | 0.00 | 0.00 | 0.00 | 34 | 1046.2 |
| 20260508182135 | 69 | 194 | 5.2 | 7.8 | 0.00 | 0.00 | 0.00 | 36 | 1046.7 |
| 20260508181630 | 69 | 232 | 7.8 | 11.3 | 0.00 | 0.00 | 0.00 | 36 | 1046.7 |
| 20260508181128 | 69 | 215 | 5.2 | 7.0 | 0.00 | 0.00 | 0.00 | 35 | 1046.4 |
| 20260508180625 | 68 | 197 | 6.1 | 7.0 | 0.00 | 0.00 | 0.00 | 39 | 1047.0 |
| 20260508180121 | 69 | 183 | 7.0 | 9.6 | 0.00 | 0.00 | 0.00 | 35 | 1046.9 |
| 20260508175618 | 68 | 217 | 5.2 | 6.1 | 0.00 | 0.00 | 0.00 | 39 | 1047.2 |
| 20260508175115 | 68 | 201 | 1.7 | 7.0 | 0.00 | 0.00 | 0.00 | 36 | 1047.3 |
| 20260508174612 | 68 | 207 | 5.2 | 7.8 | 0.00 | 0.00 | 0.00 | 42 | 1047.2 |
| 20260508174109 | 68 | 200 | 6.1 | 8.7 | 0.00 | 0.00 | 0.00 | 35 | 1047.4 |
| 20260508173606 | 67 | 283 | 7.0 | 11.3 | 0.00 | 0.00 | 0.00 | 41 | 1047.5 |
| 20260508173102 | 68 | 164 | 4.3 | 8.7 | 0.00 | 0.00 | 0.00 | 38 | 1047.8 |
| 20260508172559 | 68 | 228 | 2.6 | 8.7 | 0.00 | 0.00 | 0.00 | 35 | 1047.6 |
| 20260508172056 | 68 | 240 | 4.3 | 7.0 | 0.00 | 0.00 | 0.00 | 41 | 1047.7 |
| 20260508171552 | 68 | 235 | 1.7 | 5.2 | 0.00 | 0.00 | 0.00 | 41 | 1047.7 |
| 20260508171049 | 68 | 240 | 4.3 | 6.1 | 0.00 | 0.00 | 0.00 | 39 | 1047.8 |
| 20260508170546 | 68 | 161 | 5.2 | 7.0 | 0.00 | 0.00 | 0.00 | 38 | 1048.0 |
| 20260508170043 | 68 | 201 | 4.3 | 6.1 | 0.00 | 0.00 | 0.00 | 39 | 1048.1 |
| 20260508165541 | 68 | 211 | 1.7 | 5.2 | 0.00 | 0.00 | 0.00 | 42 | 1048.4 |
| 20260508165038 | 68 | 240 | 2.6 | 2.6 | 0.00 | 0.00 | 0.00 | 39 | 1048.3 |
| 20260508164534 | 67 | 230 | 3.5 | 6.1 | 0.00 | 0.00 | 0.00 | 45 | 1048.3 |
| 20260508164031 | 67 | 233 | 6.1 | 7.8 | 0.00 | 0.00 | 0.00 | 43 | 1048.5 |
| 20260508163528 | 67 | 221 | 3.5 | 7.8 | 0.00 | 0.00 | 0.00 | 39 | 1048.9 |
| 20260508163025 | 67 | 209 | 4.3 | 6.1 | 0.00 | 0.00 | 0.00 | 43 | 1048.7 |
| 20260508162522 | 67 | 178 | 5.2 | 7.0 | 0.00 | 0.00 | 0.00 | 41 | 1048.7 |
| 20260508162019 | 67 | 217 | 3.5 | 6.1 | 0.00 | 0.00 | 0.00 | 42 | 1048.9 |
| 20260508161516 | 67 | 221 | 2.6 | 5.2 | 0.00 | 0.00 | 0.00 | 43 | 1048.9 |
| 20260508161013 | 67 | 183 | 4.3 | 6.1 | 0.00 | 0.00 | 0.00 | 39 | 1048.9 |
| 20260508160512 | 66 | 211 | 2.6 | 3.5 | 0.00 | 0.00 | 0.00 | 46 | 1049.2 |
| 20260508160008 | 66 | 223 | 3.5 | 5.2 | 0.00 | 0.00 | 0.00 | 42 | 1048.9 |
| 20260508155505 | 66 | 200 | 3.5 | 7.0 | 0.00 | 0.00 | 0.00 | 44 | 1049.2 |
| 20260508155001 | 66 | 213 | 5.2 | 7.0 | 0.00 | 0.00 | 0.00 | 41 | 1049.4 |
| 20260508154459 | 65 | 212 | 3.5 | 7.0 | 0.00 | 0.00 | 0.00 | 45 | 1049.3 |
| 20260508153956 | 66 | 303 | 2.6 | 7.0 | 0.00 | 0.00 | 0.00 | 44 | 1049.3 |
| 20260508153453 | 65 | 254 | 1.7 | 6.1 | 0.00 | 0.00 | 0.00 | 43 | 1049.5 |
| 20260508152949 | 65 | 290 | 5.2 | 6.1 | 0.00 | 0.00 | 0.00 | 47 | 1049.7 |
| 20260508152445 | 64 | 279 | 4.3 | 5.2 | 0.00 | 0.00 | 0.00 | 47 | 1049.5 |
| 20260508151942 | 64 | 223 | 2.6 | 3.5 | 0.00 | 0.00 | 0.00 | 44 | 1049.9 |
| 20260508151438 | 64 | 263 | 1.7 | 1.7 | 0.00 | 0.00 | 0.00 | 45 | 1049.8 |
| 20260508150935 | 64 | 168 | 5.2 | 7.0 | 0.00 | 0.00 | 0.00 | 44 | 1049.8 |
| 20260508150432 | 63 | 221 | 3.5 | 5.2 | 0.00 | 0.00 | 0.00 | 46 | 1049.8 |
| 20260508145927 | 63 | 272 | 2.6 | 3.5 | 0.00 | 0.00 | 0.00 | 47 | 1049.8 |
| 20260508145425 | 63 | 206 | 4.3 | 6.1 | 0.00 | 0.00 | 0.00 | 46 | 1049.9 |
| 20260508144921 | 63 | 206 | 4.3 | 6.1 | 0.00 | 0.00 | 0.00 | 46 | 1049.9 |
| 20260508144419 | 62 | 235 | 1.7 | 2.6 | 0.00 | 0.00 | 0.00 | 45 | 1049.8 |
| 20260508143916 | 62 | 225 | 5.2 | 7.8 | 0.00 | 0.00 | 0.00 | 47 | 1049.7 |
| 20260508143414 | 62 | 197 | 4.3 | 7.0 | 0.00 | 0.00 | 0.00 | 44 | 1049.6 |
| 20260508142910 | 62 | 195 | 4.3 | 5.2 | 0.00 | 0.00 | 0.00 | 44 | 1049.6 |
| 20260508142407 | 62 | 211 | 3.5 | 6.1 | 0.00 | 0.00 | 0.00 | 44 | 1049.7 |
| 20260508141903 | 62 | 225 | 1.7 | 5.2 | 0.00 | 0.00 | 0.00 | 47 | 1049.8 |
| 20260508141400 | 62 | 275 | 1.7 | 3.5 | 0.00 | 0.00 | 0.00 | 46 | 1050.1 |
| 20260508140858 | 61 | 195 | 3.5 | 5.2 | 0.00 | 0.00 | 0.00 | 47 | 1049.7 |
| 20260508140355 | 61 | 218 | 2.6 | 6.1 | 0.00 | 0.00 | 0.00 | 44 | 1049.6 |
| 20260508135850 | 60 | 224 | 3.5 | 6.1 | 0.00 | 0.00 | 0.00 | 47 | 1049.8 |
| 20260508135347 | 60 | 205 | 3.5 | 6.1 | 0.00 | 0.00 | 0.00 | 48 | 1049.8 |
| 20260508134843 | 60 | 264 | 4.3 | 5.2 | 0.00 | 0.00 | 0.00 | 46 | 1050.0 |
| 20260508134340 | 59 | 214 | 1.7 | 5.2 | 0.00 | 0.00 | 0.00 | 48 | 1049.8 |
| 20260508133837 | 59 | 223 | 1.7 | 2.6 | 0.00 | 0.00 | 0.00 | 48 | 1049.9 |
| 20260508133335 | 58 | 202 | 0.0 | 3.5 | 0.00 | 0.00 | 0.00 | 50 | 1049.9 |
| 20260508132831 | 58 | 202 | 1.7 | 5.2 | 0.00 | 0.00 | 0.00 | 50 | 1049.8 |
| 20260508132329 | 57 | 209 | 3.5 | 6.1 | 0.00 | 0.00 | 0.00 | 52 | 1049.8 |
| 20260508131826 | 57 | 238 | 1.7 | 2.6 | 0.00 | 0.00 | 0.00 | 54 | 1049.7 |
| 20260508131321 | 56 | 219 | 5.2 | 6.1 | 0.00 | 0.00 | 0.00 | 51 | 1050.0 |
| 20260508130818 | 56 | 196 | 3.5 | 3.5 | 0.00 | 0.00 | 0.00 | 53 | 1049.7 |
| 20260508130315 | 55 | 209 | 3.5 | 3.5 | 0.00 | 0.00 | 0.00 | 56 | 1049.9 |
| 20260508125811 | 55 | 208 | 2.6 | 5.2 | 0.00 | 0.00 | 0.00 | 55 | 1049.9 |
| 20260508125308 | 54 | 203 | 3.5 | 5.2 | 0.00 | 0.00 | 0.00 | 56 | 1049.8 |
| 20260508124806 | 54 | 210 | 4.3 | 6.1 | 0.00 | 0.00 | 0.00 | 56 | 1049.7 |
| 20260508124302 | 53 | 204 | 3.5 | 3.5 | 0.00 | 0.00 | 0.00 | 56 | 1049.7 |
| 20260508123800 | 53 | 211 | 1.7 | 2.6 | 0.00 | 0.00 | 0.00 | 59 | 1049.7 |
| 20260508123258 | 52 | 225 | 4.3 | 5.2 | 0.00 | 0.00 | 0.00 | 58 | 1049.6 |
| 20260508122754 | 52 | 223 | 2.6 | 2.6 | 0.00 | 0.00 | 0.00 | 59 | 1049.6 |
| 20260508122251 | 51 | 232 | 1.7 | 2.6 | 0.00 | 0.00 | 0.00 | 60 | 1049.7 |
| 20260508121749 | 50 | 229 | 2.6 | 2.6 | 0.00 | 0.00 | 0.00 | 62 | 1049.5 |
| 20260508121247 | 50 | 197 | 1.7 | 1.7 | 0.00 | 0.00 | 0.00 | 63 | 1049.6 |
| 20260508120744 | 49 | 224 | 3.5 | 3.5 | 0.00 | 0.00 | 0.00 | 66 | 1049.8 |
| 20260508120242 | 48 | 226 | 1.7 | 1.7 | 0.00 | 0.00 | 0.00 | 68 | 1049.7 |
| 20260508115739 | 46 | 179 | 0.9 | 0.9 | 0.00 | 0.00 | 0.00 | 71 | 1049.6 |
| 20260508115237 | 0 | 0.0 | 0.0 | 0.00 | 0.00 | 0.00 | 1049.4 | ||
| 20260508114733 | 0 | 0.0 | 0.0 | 0.00 | 0.00 | 0.00 | 1049.5 | ||
| 20260508114230 | 46 | 189 | 0.0 | 0.0 | 0.00 | 0.00 | 0.00 | 75 | 1049.5 |
| 20260508113726 | 46 | 189 | 0.0 | 0.0 | 0.00 | 0.00 | 0.00 | 75 | 1049.5 |
| 20260508113225 | 45 | 189 | 0.0 | 0.9 | 0.00 | 0.00 | 0.00 | 76 | 1049.4 |
| 20260508112721 | 44 | 189 | 0.0 | 0.0 | 0.00 | 0.00 | 0.00 | 78 | 1049.2 |
| 20260508112218 | 42 | 189 | 0.0 | 0.0 | 0.00 | 0.00 | 0.00 | 80 | 1049.2 |
| 20260508111714 | 42 | 189 | 0.0 | 0.0 | 0.00 | 0.00 | 0.00 | 82 | 1049.2 |
| 20260508111212 | 41 | 189 | 0.0 | 0.0 | 0.00 | 0.00 | 0.00 | 80 | 1049.4 |
| 20260508110709 | 41 | 189 | 0.0 | 0.0 | 0.00 | 0.00 | 0.00 | 80 | 1049.2 |
| 20260508110206 | 40 | 189 | 0.0 | 0.0 | 0.00 | 0.00 | 0.00 | 81 | 1049.0 |
| 20260508105706 | 40 | 189 | 0.9 | 0.9 | 0.00 | 0.00 | 0.00 | 83 | 1049.0 |
| 20260508105203 | 40 | 189 | 0.0 | 0.0 | 0.00 | 0.00 | 0.00 | 84 | 1048.9 |
| 20260508104701 | 39 | 189 | 0.0 | 0.0 | 0.00 | 0.00 | 0.00 | 85 | 1049.0 |
| 20260508104157 | 40 | 189 | 0.0 | 0.0 | 0.00 | 0.00 | 0.00 | 84 | 1048.7 |
| 20260508103654 | 40 | 189 | 0.0 | 0.0 | 0.00 | 0.00 | 0.00 | 83 | 1048.8 |
| 20260508103151 | 40 | 188 | 0.0 | 0.0 | 0.00 | 0.00 | 0.00 | 82 | 1048.9 |
| 20260508102649 | 41 | 189 | 0.0 | 0.0 | 0.00 | 0.00 | 0.00 | 80 | 1048.7 |
| 20260508102147 | 41 | 189 | 0.0 | 0.0 | 0.00 | 0.00 | 0.00 | 78 | 1048.9 |
| 20260508101643 | 42 | 189 | 0.0 | 0.0 | 0.00 | 0.00 | 0.00 | 76 | 1048.6 |
| 20260508101141 | 43 | 189 | 0.0 | 0.0 | 0.00 | 0.00 | 0.00 | 72 | 1048.7 |
| 20260508100638 | 44 | 189 | 0.0 | 0.0 | 0.00 | 0.00 | 0.00 | 69 | 1048.6 |
| 20260508100136 | 45 | 189 | 0.0 | 0.9 | 0.00 | 0.00 | 0.00 | 68 | 1048.7 |
| 20260508095633 | 45 | 180 | 1.7 | 1.7 | 0.00 | 0.00 | 0.00 | 67 | 1048.6 |
| 20260508095130 | 45 | 179 | 1.7 | 1.7 | 0.00 | 0.00 | 0.00 | 67 | 1048.5 |
| 20260508094627 | 45 | 190 | 1.7 | 2.6 | 0.00 | 0.00 | 0.00 | 67 | 1048.5 |
| 20260508094123 | 45 | 193 | 1.7 | 2.6 | 0.00 | 0.00 | 0.00 | 68 | 1048.5 |
| 20260508093621 | 44 | 175 | 1.7 | 3.5 | 0.00 | 0.00 | 0.00 | 69 | 1048.8 |
| 20260508093119 | 45 | 199 | 1.7 | 2.6 | 0.00 | 0.00 | 0.00 | 69 | 1048.6 |
| 20260508092615 | 44 | 185 | 2.6 | 2.6 | 0.00 | 0.00 | 0.00 | 69 | 1048.7 |
| 20260508092114 | 44 | 174 | 1.7 | 2.6 | 0.00 | 0.00 | 0.00 | 70 | 1048.7 |
| 20260508091610 | 44 | 168 | 1.7 | 1.7 | 0.00 | 0.00 | 0.00 | 71 | 1048.7 |
| 20260508091107 | 44 | 193 | 1.7 | 2.6 | 0.00 | 0.00 | 0.00 | 71 | 1048.6 |
| 20260508090606 | 43 | 181 | 1.7 | 2.6 | 0.00 | 0.00 | 0.00 | 72 | 1048.8 |
| 20260508085559 | 43 | 189 | 0.9 | 2.6 | 0.00 | 0.00 | 0.00 | 74 | 1048.7 |
| 20260508085056 | 43 | 174 | 1.7 | 1.7 | 0.00 | 0.00 | 0.00 | 74 | 1048.7 |
| 20260508084552 | 42 | 192 | 2.6 | 2.6 | 0.00 | 0.00 | 0.00 | 76 | 1048.8 |
| 20260508084050 | 41 | 197 | 0.9 | 1.7 | 0.00 | 0.00 | 0.00 | 78 | 1048.8 |
| 20260508083547 | 40 | 171 | 0.9 | 0.9 | 0.00 | 0.00 | 0.00 | 82 | 1048.8 |
| 20260508083044 | 0 | 0.0 | 0.0 | 0.00 | 0.00 | 0.00 | 1048.6 | ||
| 20260508082540 | 0 | 0.0 | 0.0 | 0.00 | 0.00 | 0.00 | 1048.8 | ||
| 20260508082037 | 0 | 0.0 | 0.0 | 0.00 | 0.00 | 0.00 | 1048.8 | ||
| 20260508081535 | 40 | 166 | 0.0 | 0.0 | 0.00 | 0.00 | 0.00 | 85 | 1049.0 |
| 20260508081030 | 40 | 166 | 0.0 | 0.0 | 0.00 | 0.00 | 0.00 | 85 | 1048.8 |
| 20260508080528 | 41 | 167 | 0.9 | 0.9 | 0.00 | 0.00 | 0.00 | 82 | 1048.8 |
| 20260508080026 | 41 | 167 | 0.9 | 0.9 | 0.00 | 0.00 | 0.00 | 82 | 1048.6 |
| 20260508075522 | 43 | 167 | 0.0 | 0.0 | 0.00 | 0.00 | 0.00 | 73 | 1048.6 |
| 20260508075020 | 43 | 167 | 0.0 | 0.0 | 0.00 | 0.00 | 0.00 | 73 | 1048.5 |
| 20260508074517 | 43 | 167 | 0.0 | 1.7 | 0.00 | 0.00 | 0.00 | 72 | 1048.5 |
| 20260508074014 | 43 | 167 | 0.9 | 0.9 | 0.00 | 0.00 | 0.00 | 73 | 1048.7 |
| 20260508073511 | 43 | 174 | 0.9 | 1.7 | 0.00 | 0.00 | 0.00 | 72 | 1048.9 |
| 20260508073009 | 44 | 171 | 0.9 | 0.9 | 0.00 | 0.00 | 0.00 | 71 | 1048.6 |
| 20260508072504 | 43 | 215 | 0.9 | 0.9 | 0.00 | 0.00 | 0.00 | 71 | 1048.7 |
| 20260508072002 | 43 | 216 | 0.0 | 0.9 | 0.00 | 0.00 | 0.00 | 72 | 1048.7 |
| 20260508071459 | 43 | 217 | 0.0 | 0.0 | 0.00 | 0.00 | 0.00 | 73 | 1048.6 |
| 20260508070957 | 43 | 217 | 0.9 | 0.9 | 0.00 | 0.00 | 0.00 | 73 | 1048.8 |
| 20260508070454 | 42 | 219 | 0.9 | 0.9 | 0.00 | 0.00 | 0.00 | 77 | 1048.8 |
| 20260508065952 | 44 | 221 | 0.0 | 0.9 | 0.00 | 0.00 | 0.00 | 72 | 1048.8 |
| 20260508065450 | 44 | 223 | 0.9 | 0.9 | 0.00 | 0.00 | 0.00 | 69 | 1048.8 |
| 20260508064948 | 44 | 226 | 0.9 | 0.9 | 0.00 | 0.00 | 0.00 | 70 | 1048.8 |
| 20260508064445 | 43 | 242 | 0.0 | 0.9 | 0.00 | 0.00 | 0.00 | 72 | 1048.9 |
| 20260508063943 | 42 | 269 | 0.9 | 0.9 | 0.00 | 0.00 | 0.00 | 76 | 1048.9 |
| 20260508063440 | 40 | 271 | 0.9 | 0.9 | 0.00 | 0.00 | 0.00 | 81 | 1048.6 |
| 20260508062938 | 41 | 271 | 0.0 | 0.0 | 0.00 | 0.00 | 0.00 | 84 | 1048.9 |
| 20260508062435 | 41 | 271 | 0.0 | 0.0 | 0.00 | 0.00 | 0.00 | 84 | 1048.8 |
| 20260508061932 | 0 | 0.0 | 0.0 | 0.00 | 0.00 | 0.00 | 1049.2 | ||
| 20260508061430 | 42 | 271 | 0.0 | 0.0 | 0.00 | 0.00 | 0.00 | 79 | 1048.9 |
| 20260508060925 | 42 | 271 | 0.0 | 0.0 | 0.00 | 0.00 | 0.00 | 79 | 1048.8 |
| 20260508060423 | 41 | 271 | 0.0 | 0.0 | 0.00 | 0.00 | 0.00 | 78 | 1049.2 |
| 20260508055919 | 41 | 271 | 0.0 | 0.0 | 0.00 | 0.00 | 0.00 | 82 | 1049.2 |
| 20260508055416 | 41 | 273 | 0.0 | 0.0 | 0.00 | 0.00 | 0.00 | 82 | 1049.2 |
| 20260508054912 | 0 | 0.0 | 0.0 | 0.00 | 0.00 | 0.00 | 1049.2 | ||
| 20260508054410 | 0 | 0.0 | 0.0 | 0.00 | 0.00 | 0.00 | 1049.3 | ||
| 20260508053906 | 42 | 280 | 0.0 | 0.0 | 0.00 | 0.00 | 0.00 | 84 | 1049.3 |
| 20260508053404 | 42 | 280 | 0.0 | 0.0 | 0.00 | 0.00 | 0.00 | 84 | 1049.3 |
| 20260508052901 | 42 | 280 | 0.9 | 0.9 | 0.00 | 0.00 | 0.00 | 82 | 1049.4 |
| 20260508052359 | 0 | 0.0 | 0.0 | 0.00 | 0.00 | 0.00 | 1049.3 | ||
| 20260508051854 | 0 | 0.0 | 0.0 | 0.00 | 0.00 | 0.00 | 1049.4 | ||
| 20260508051350 | 0 | 0.0 | 0.0 | 0.00 | 0.00 | 0.00 | 1049.3 | ||
| 20260508050847 | 0 | 0.0 | 0.0 | 0.00 | 0.00 | 0.00 | 1049.2 | ||
| 20260508050344 | 43 | 282 | 0.0 | 0.0 | 0.00 | 0.00 | 0.00 | 79 | 1049.4 |
| 20260508045839 | 43 | 282 | 0.0 | 0.0 | 0.00 | 0.00 | 0.00 | 79 | 1049.2 |
| 20260508045337 | 43 | 282 | 0.0 | 0.0 | 0.00 | 0.00 | 0.00 | 81 | 1049.0 |
| 20260508044835 | 42 | 283 | 0.9 | 0.9 | 0.00 | 0.00 | 0.00 | 82 | 1049.0 |
| 20260508044331 | 42 | 282 | 0.0 | 0.0 | 0.00 | 0.00 | 0.00 | 85 | 1048.9 |
| 20260508043827 | 42 | 282 | 0.9 | 0.9 | 0.00 | 0.00 | 0.00 | 84 | 1049.2 |
| 20260508043325 | 43 | 282 | 0.0 | 0.9 | 0.00 | 0.00 | 0.00 | 83 | 1049.0 |
| 20260508042821 | 43 | 282 | 0.0 | 0.0 | 0.00 | 0.00 | 0.00 | 83 | 1049.0 |
| 20260508042319 | 43 | 282 | 0.0 | 0.0 | 0.00 | 0.00 | 0.00 | 82 | 1049.2 |
| 20260508041816 | 42 | 282 | 0.0 | 0.9 | 0.00 | 0.00 | 0.00 | 83 | 1049.2 |
| 20260508041312 | 42 | 282 | 0.0 | 0.0 | 0.00 | 0.00 | 0.00 | 84 | 1049.4 |
| 20260508040808 | 42 | 283 | 0.0 | 0.0 | 0.00 | 0.00 | 0.00 | 85 | 1049.0 |
| 20260508040306 | 42 | 282 | 0.0 | 0.0 | 0.00 | 0.00 | 0.00 | 85 | 1049.2 |
| 20260508035803 | 42 | 283 | 0.0 | 0.0 | 0.00 | 0.00 | 0.00 | 85 | 1049.3 |
| 20260508035300 | 43 | 283 | 0.9 | 0.9 | 0.00 | 0.00 | 0.00 | 84 | 1049.0 |
| 20260508034757 | 43 | 283 | 0.0 | 0.0 | 0.00 | 0.00 | 0.00 | 83 | 1049.0 |
| 20260508034254 | 43 | 283 | 0.9 | 0.9 | 0.00 | 0.00 | 0.00 | 82 | 1049.3 |
| 20260508033751 | 43 | 283 | 0.0 | 0.0 | 0.00 | 0.00 | 0.00 | 79 | 1049.4 |
| 20260508033249 | 43 | 283 | 0.0 | 0.9 | 0.00 | 0.00 | 0.00 | 80 | 1049.4 |
| 20260508032747 | 0 | 0.0 | 0.0 | 0.00 | 0.00 | 0.00 | 1049.3 | ||
| 20260508032244 | 0 | 0.0 | 0.0 | 0.00 | 0.00 | 0.00 | 1049.2 | ||
| 20260508031740 | 0 | 0.0 | 0.0 | 0.00 | 0.00 | 0.00 | 1049.3 | ||
| 20260508031237 | 45 | 284 | 0.0 | 0.0 | 0.00 | 0.00 | 0.00 | 75 | 1049.4 |
| 20260508030733 | 45 | 284 | 0.0 | 0.0 | 0.00 | 0.00 | 0.00 | 75 | 1049.3 |
| 20260508030231 | 0 | 0.0 | 0.0 | 0.00 | 0.00 | 0.00 | 1049.4 | ||
| 20260508025727 | 0 | 0.0 | 0.0 | 0.00 | 0.00 | 0.00 | 1049.2 | ||
| 20260508025224 | 0 | 0.0 | 0.0 | 0.00 | 0.00 | 0.00 | 1049.2 | ||
| 20260508024720 | 0 | 0.0 | 0.0 | 0.00 | 0.00 | 0.00 | 1049.2 | ||
| 20260508024217 | 0 | 0.0 | 0.0 | 0.00 | 0.00 | 0.00 | 1049.2 | ||
| 20260508023714 | 0 | 0.0 | 0.0 | 0.00 | 0.00 | 0.00 | 1049.2 | ||
| 20260508023211 | 0 | 0.0 | 0.0 | 0.00 | 0.00 | 0.00 | 1049.0 | ||
| 20260508022707 | 0 | 0.0 | 0.0 | 0.00 | 0.00 | 0.00 | 1048.9 | ||
| 20260508022204 | 0 | 0.0 | 0.0 | 0.00 | 0.00 | 0.00 | 1048.9 | ||
| 20260508021701 | 0 | 0.0 | 0.0 | 0.00 | 0.00 | 0.00 | 1048.9 | ||
| 20260508021156 | 0 | 0.0 | 0.0 | 0.00 | 0.00 | 0.00 | 1048.9 | ||
| 20260508020654 | 49 | 285 | 0.0 | 0.0 | 0.00 | 0.00 | 0.00 | 58 | 1049.0 |
| 20260508020151 | 49 | 285 | 0.0 | 0.0 | 0.00 | 0.00 | 0.00 | 58 | 1048.9 |
| 20260508015648 | 0 | 0.0 | 0.0 | 0.00 | 0.00 | 0.00 | 1048.8 | ||
| 20260508015145 | 50 | 285 | 0.0 | 0.0 | 0.00 | 0.00 | 0.00 | 57 | 1048.6 |
| 20260508014642 | 50 | 285 | 0.0 | 0.0 | 0.00 | 0.00 | 0.00 | 57 | 1048.7 |
| 20260508014138 | 49 | 285 | 0.0 | 0.0 | 0.00 | 0.00 | 0.00 | 56 | 1048.4 |
| 20260508013634 | 49 | 285 | 0.0 | 0.0 | 0.00 | 0.00 | 0.00 | 54 | 1048.5 |
| 20260508013131 | 49 | 285 | 0.0 | 0.0 | 0.00 | 0.00 | 0.00 | 55 | 1048.4 |
| 20260508012629 | 0 | 0.0 | 0.0 | 0.00 | 0.00 | 0.00 | 1048.3 | ||
| 20260508012125 | 50 | 285 | 0.0 | 0.0 | 0.00 | 0.00 | 0.00 | 56 | 1048.4 |
| 20260508011624 | 50 | 285 | 0.0 | 0.0 | 0.00 | 0.00 | 0.00 | 56 | 1048.4 |
| 20260508011121 | 51 | 285 | 0.0 | 0.0 | 0.00 | 0.00 | 0.00 | 54 | 1048.2 |
| 20260508010617 | 51 | 284 | 0.0 | 0.0 | 0.00 | 0.00 | 0.00 | 56 | 1048.3 |
| 20260508010116 | 51 | 285 | 0.0 | 0.0 | 0.00 | 0.00 | 0.00 | 56 | 1048.2 |
| 20260508005612 | 53 | 284 | 0.0 | 0.9 | 0.00 | 0.00 | 0.00 | 54 | 1047.9 |
| 20260508005108 | 53 | 285 | 0.0 | 0.9 | 0.00 | 0.00 | 0.00 | 51 | 1048.1 |
| 20260508004604 | 53 | 285 | 0.0 | 0.9 | 0.00 | 0.00 | 0.00 | 50 | 1047.9 |
| 20260508004101 | 53 | 285 | 0.9 | 0.9 | 0.00 | 0.00 | 0.00 | 52 | 1048.1 |
| 20260508003558 | 54 | 285 | 0.0 | 0.0 | 0.00 | 0.00 | 0.00 | 51 | 1048.0 |
| 20260508003055 | 55 | 285 | 0.9 | 0.9 | 0.00 | 0.00 | 0.00 | 49 | 1047.9 |
| 20260508002552 | 56 | 285 | 0.0 | 0.9 | 0.00 | 0.00 | 0.00 | 49 | 1047.9 |
| 20260508002049 | 57 | 285 | 0.9 | 0.9 | 0.00 | 0.00 | 0.00 | 48 | 1047.9 |
| 20260508001544 | 58 | 295 | 0.9 | 0.9 | 0.00 | 0.00 | 0.00 | 44 | 1047.6 |
| 20260508001041 | 58 | 295 | 0.9 | 0.9 | 0.00 | 0.00 | 0.00 | 40 | 1047.6 |